Weather History for KIGX - July, 2013

Change the Weather History Date:

Monday, July 1, 2013

  Actual Average Record
Temperature  
Mean Temperature 76 °F -  
Max Temperature 81 °F 87 °F 101 °F (1959)
Min Temperature 70 °F 63 °F 54 °F (1981)
Cooling Degree Days 10    
Growing Degree Days 26 (Base 50)    
Moisture  
Dew Point 70 °F    
Average Humidity 86    
Maximum Humidity 93    
Minimum Humidity 69    
Precipitation  
Precipitation 1.13 in - - ()
Sea Level Pressure  
Sea Level Pressure 29.93 in    
Wind  
Wind Speed 2 mph (SE)    
Max Wind Speed 8 mph    
Max Gust Speed -    
Visibility 8 miles    
Events Fog , Rain , Thunderstorm    
Averages and records for this station are not official NWS values.
T = Trace of Precipitation, MM = Missing Value Source: NWS Daily Summary

Daily Weather History Graph

Daily Weather History Graph

Search for Another Location

Airport or City:

Trip Planner

Search our weather history database for the weather conditions in past years. The results will help you decide how hot, cold, wet, or windy it might be!

Date:

Astronomy

Jul. 01, 2013 Rise Set
Actual Time 6:03 AM EDT 8:36 PM EDT
Civil Twilight 5:33 AM EDT 9:06 PM EDT
Nautical Twilight 4:56 AM EDT 9:44 PM EDT
Astronomical Twilight 4:14 AM EDT 10:25 PM EDT
Moon 1:24 AM EDT (7/1) 2:56 PM EDT (7/1)
Length of Visible Light 15h 33m
Length of Day
14h 33m
Waning Crescent, 35% of the Moon is Illuminated
Jul 1
Waning Crescent
Jul 8
New
Jul 15
First Quarter
Jul 22
Full
Jul 29
Last Quarter

Hourly Weather History & Observations

Time (EDT) Temp. Heat Index Dew Point Humidity Pressure Visibility Wind Dir Wind Speed Gust Speed Precip Events Conditions
12:07 AM 70.0 °F - 68.0 °F 93% 29.88 in 8.0 mi Variable 4.6 mph - 0.01 in Rain Light Rain
12:56 AM 71.1 °F - 69.1 °F 93% 29.85 in 8.0 mi Calm Calm - 0.01 in   Overcast
1:56 AM 71.1 °F - 69.1 °F 93% 29.86 in 6.0 mi Calm Calm - N/A   Overcast
2:56 AM 71.1 °F - 69.1 °F 93% 29.86 in 6.0 mi Calm Calm - N/A   Overcast
3:56 AM 71.1 °F - 69.1 °F 93% 29.86 in 4.0 mi Calm Calm - 0.02 in Rain Light Rain
4:10 AM 72.0 °F - 69.1 °F 91% 29.87 in 7.0 mi Calm Calm - 0.00 in Rain Light Rain
4:31 AM 72.0 °F - 69.1 °F 91% 29.87 in 6.0 mi Calm Calm - 0.00 in   Overcast
4:42 AM 72.0 °F - 69.1 °F 91% 29.87 in 6.0 mi Calm Calm - 0.00 in   Overcast
4:56 AM 72.0 °F - 69.1 °F 91% 29.86 in 6.0 mi Calm Calm - 0.01 in Rain Light Rain
5:30 AM 72.0 °F - 69.1 °F 91% 29.89 in 7.0 mi Calm Calm - 0.00 in Rain Light Rain
5:37 AM 72.0 °F - 69.1 °F 91% 29.89 in 7.0 mi Calm Calm - 0.00 in   Overcast
5:56 AM 72.0 °F - 69.1 °F 91% 29.88 in 7.0 mi Calm Calm - 0.00 in   Overcast
6:26 AM 72.0 °F - 70.0 °F 93% 29.89 in 7.0 mi Calm Calm - N/A   Overcast
6:38 AM 72.0 °F - 70.0 °F 93% 29.88 in 1.8 mi Calm Calm - 0.06 in Rain Heavy Rain
6:41 AM 72.0 °F - 70.0 °F 93% 29.90 in 0.8 mi Variable 3.5 mph - 0.16 in Rain , Thunderstorm Heavy Rain
6:46 AM 72.0 °F - 70.0 °F 93% 29.93 in 0.2 mi WSW 8.1 mph - 0.40 in Fog , Rain , Thunderstorm Heavy Rain
6:56 AM 70.0 °F - 68.0 °F 93% 29.90 in 0.2 mi Variable 3.5 mph - 0.66 in Fog , Rain , Thunderstorm Heavy Rain
7:02 AM 70.0 °F - 66.9 °F 90% 29.90 in 0.8 mi Variable 3.5 mph - 0.03 in Rain , Thunderstorm Heavy Rain
7:10 AM 70.0 °F - 66.9 °F 90% 29.90 in 1.2 mi Calm Calm - 0.09 in Rain , Thunderstorm Rain
7:16 AM 70.0 °F - 66.9 °F 90% 29.90 in 2.0 mi Calm Calm - 0.11 in Rain Rain
7:27 AM 70.0 °F - 66.9 °F 90% 29.92 in 3.0 mi ESE 5.8 mph - 0.14 in Rain Rain
7:37 AM 70.0 °F - 68.0 °F 93% 29.92 in 3.0 mi Calm Calm - 0.16 in Rain Rain
7:56 AM 70.0 °F - 68.0 °F 93% 29.90 in 2.0 mi Calm Calm - 0.22 in Rain Rain
8:21 AM 70.0 °F - 66.9 °F 90% 29.91 in 7.0 mi Calm Calm - 0.05 in Rain Light Rain
8:30 AM 70.0 °F - 66.9 °F 90% 29.92 in 10.0 mi Calm Calm - 0.05 in   Mostly Cloudy
8:56 AM 71.1 °F - 68.0 °F 90% 29.93 in 10.0 mi Calm Calm - 0.05 in   Overcast
9:48 AM 73.0 °F - 69.1 °F 87% 29.95 in 10.0 mi Calm Calm - N/A   Mostly Cloudy
9:56 AM 73.0 °F - 68.0 °F 84% 29.93 in 10.0 mi Calm Calm - N/A   Mostly Cloudy
10:23 AM 73.9 °F - 68.0 °F 82% 29.95 in 10.0 mi SSE 3.5 mph - N/A   Mostly Cloudy
10:33 AM 73.9 °F - 68.0 °F 82% 29.95 in 10.0 mi ESE 3.5 mph - N/A   Scattered Clouds
10:54 AM 73.4 °F - 69.8 °F 88% 29.95 in 10.0 mi SE 3.5 mph - N/A   Mostly Cloudy
10:56 AM 73.9 °F - 69.1 °F 85% 29.94 in 10.0 mi Calm Calm - N/A   Mostly Cloudy
10:59 AM 73.9 °F - 69.1 °F 85% 29.95 in 10.0 mi Calm Calm - N/A   Mostly Cloudy
11:31 AM 75.0 °F - 68.0 °F 79% 29.95 in 10.0 mi SE 3.5 mph - N/A   Overcast
11:49 AM 77.0 °F - 69.1 °F 76% 29.95 in 10.0 mi Calm Calm - N/A   Overcast
11:56 AM 75.9 °F - 69.1 °F 79% 29.94 in 10.0 mi Calm Calm - N/A   Overcast
12:35 PM 77.0 °F - 69.1 °F 76% 29.95 in 10.0 mi SE 5.8 mph - N/A   Overcast
12:56 PM 78.1 °F - 68.0 °F 71% 29.94 in 10.0 mi Calm Calm - N/A   Overcast
1:22 PM 78.1 °F - 68.0 °F 71% 29.95 in 10.0 mi Calm Calm - N/A   Overcast
1:43 PM 78.1 °F - 69.1 °F 74% 29.96 in 10.0 mi SE 5.8 mph - N/A   Overcast
1:56 PM 79.0 °F - 69.1 °F 72% 29.94 in 10.0 mi SE 5.8 mph - N/A   Overcast
2:56 PM 79.0 °F - 69.1 °F 72% 29.93 in 10.0 mi Variable 4.6 mph - N/A   Overcast
3:32 PM 78.1 °F - 70.0 °F 76% 29.94 in 10.0 mi Variable 4.6 mph - N/A   Overcast
3:44 PM 77.0 °F - 70.0 °F 79% 29.95 in 5.0 mi SSE 3.5 mph - 0.01 in Rain Light Rain
3:56 PM 78.1 °F - 72.0 °F 81% 29.93 in 10.0 mi Calm Calm - 0.01 in Rain Light Rain
4:37 PM 81.0 °F 84.9 °F 71.1 °F 72% 29.94 in 10.0 mi SSE 3.5 mph - 0.00 in   Mostly Cloudy
4:56 PM 81.0 °F 84.4 °F 70.0 °F 69% 29.92 in 10.0 mi Variable 4.6 mph - 0.00 in   Mostly Cloudy
5:21 PM 81.0 °F 84.9 °F 71.1 °F 72% 29.94 in 10.0 mi Calm Calm - N/A   Scattered Clouds
5:56 PM 80.1 °F 83.6 °F 71.1 °F 74% 29.92 in 10.0 mi Variable 3.5 mph - N/A   Mostly Cloudy
6:12 PM 80.1 °F 83.8 °F 72.0 °F 76% 29.94 in 10.0 mi Calm Calm - N/A   Mostly Cloudy
6:45 PM 75.9 °F - 72.0 °F 87% 29.95 in 2.5 mi Variable 3.5 mph - 0.05 in Rain Rain
6:50 PM 75.2 °F - 71.6 °F 89% 29.95 in 0.8 mi Variable 3.5 mph - 0.14 in Rain Heavy Rain
6:56 PM 75.9 °F - 72.0 °F 87% 29.94 in 0.8 mi ESE 6.9 mph - 0.15 in Rain Rain
7:00 PM 75.9 °F - 72.0 °F 87% 29.96 in 3.0 mi Variable 4.6 mph - 0.00 in Rain Light Rain
7:16 PM 75.9 °F - 72.0 °F 87% 29.96 in 10.0 mi SE 4.6 mph - 0.00 in Rain Light Rain
7:56 PM 75.0 °F - 72.0 °F 90% 29.96 in 10.0 mi Variable 5.8 mph - 0.00 in   Overcast
8:18 PM 75.0 °F - 72.0 °F 90% 29.98 in 10.0 mi Variable 4.6 mph - 0.00 in Rain Light Rain
8:25 PM 75.0 °F - 72.0 °F 90% 29.98 in 10.0 mi Variable 5.8 mph - 0.00 in Rain Light Rain
8:56 PM 75.0 °F - 72.0 °F 90% 29.96 in 10.0 mi Variable 4.6 mph - 0.00 in   Mostly Cloudy
9:20 PM 75.0 °F - 71.1 °F 87% 29.98 in 10.0 mi Variable 3.5 mph - N/A   Mostly Cloudy
9:26 PM 73.9 °F - 71.1 °F 91% 29.98 in 10.0 mi SSE 3.5 mph - N/A   Scattered Clouds
9:31 PM 73.9 °F - 71.1 °F 91% 29.99 in 10.0 mi Calm Calm - N/A   Mostly Cloudy
9:41 PM 73.9 °F - 71.1 °F 91% 30.00 in 10.0 mi Variable 4.6 mph - N/A   Partly Cloudy
9:56 PM 73.9 °F - 71.1 °F 91% 29.99 in 10.0 mi Calm Calm - N/A   Partly Cloudy
10:18 PM 73.9 °F - 71.1 °F 91% 30.01 in 10.0 mi Calm Calm - N/A   Mostly Cloudy
10:46 PM 73.9 °F - 71.1 °F 91% 30.01 in 10.0 mi Calm Calm - N/A   Overcast
10:56 PM 73.9 °F - 71.1 °F 91% 29.99 in 10.0 mi Variable 4.6 mph - N/A   Overcast
11:40 PM 73.9 °F - 71.1 °F 91% 30.01 in 10.0 mi Variable 3.5 mph - N/A   Overcast
11:56 PM 73.9 °F - 71.1 °F 91% 29.99 in 10.0 mi North - - N/A   Mostly Cloudy